Retour au catalogue

HORIZONS 2

ActifCommunicationsGEO
NORAD 32388·PAYLOAD· XX

Lancé Dec 21, 2007 depuis Guiana Space Centre

Loading…

TLE

FraisSource: CelesTrak SupGP

Époque: Sep 14, 2026, 00:00 UTC

1 32388C 07063B   26257.00000000 -.00000163  00000+0  00000+0 0  2578
2 32388   2.8247  79.4531 0000728 109.9322  89.8063  1.00275359    18

Suivez HORIZONS 2 en temps réel avec AllMySat

Download on the App Store